Погода в Канаше

Россия / Чувашская Республика     56°02′55″N   46°33′26″E
темп.,
°C
ветер,
м/с
пор.,
м/с
влажн.,
%
обл.,
%
осадки,
мм/ч
давл.,
гПа
погр.,
м
16 мая, вс
вс1600:00+17ююз4137518 0.0 1014248
03:00+16ю228291 0.0 101524
06:00+18ю238076 0.0 101499
09:00+21ююз456999 0.0 1014460
12:00+24юз5764100 0.0 10151136
15:00+24юз576697 2.1 10151073
18:00+21юз36791 0.9 1015141
21:00+18юз22899 0.9 101526
17 мая, пн
пн1700:00+16зсз1191100 3.4 101615
03:00+15юз118473 3.6 101711
06:00+18з00795 0.1 101863
09:00+22ссв106492 0.1 1018511
12:00+25сз01545 0.0 1018972
15:00+26зюз12506 0.0 10171167
18:00+25с11646 0.0 101716
21:00+20всв3371100 0.0 101821
18 мая, вт
вт1800:00+18вюв367770 0.0 101884
03:00+17вюв3380100 0.0 101725
06:00+19вюв3678100 0.0 1018128
09:00+24вюв465985 0.0 1017417
12:00+27юв564992 0.0 10171074
15:00+27вюв464898 0.0 10171253
18:00+23в51070100 0.0 1016244
21:00+19вюв41065100 0.0 1017130
19 мая, ср
ср1900:00+18юв5137487 0.0 1016213
03:00+17вюв6146990 0.0 1017253
06:00+17вюв613789 0.0 1016255
09:00+23юв711655 0.0 1016491
12:00+25вюв810585 0.0 1016988
15:00+25вюв710605 0.0 10151415
18:00+22вюв714664 0.0 1014532
21:00+19вюв717661 0.0 1013416
20 мая, чт
чт2000:00+17юв4127893 0.5 1013283
03:00+16юв49874 0.5 1012187
06:00+17ююв59870 0.1 1012513
09:00+18ююв69725 0.1 1013957
12:00+15юв71388100 2.8 1013703
15:00+19ю712643 3.4 10121931
18:00+15ююз7117621 0.8 1013919
21:00+12ююз713875 1.1 1015592